Terminal Aerodrome Forecast
Issued by NWS

Home | Current Version | Previous Version | Text Only | Print | Product List | Glossary Off
Versions: 1 2 3 4 5 6 7 8 9 10 11 12 13 14 15 16 17 18 19

000
FTUS43 KOAX 140830 AAA
TAFCDR
TAF AMD
KCDR 140830Z 1409/1506 26003KT P6SM SCT016 OVC090
     FM141800 29012KT P6SM SCT050 OVC100
     FM142200 35012G20KT 5SM -SN SCT020 OVC050
     FM150000 02014G25KT 2SM -SN BKN008 OVC015=

USA.gov is the U.S. government's official web portal to all federal, state and local government web resources and services.